Tracking 19146 objects as of 23-Apr-2018
HD Live streaming from Space Station
objects crossing your sky now

COSMOS 1723

Track COSMOS 1723 now!
10-day predictions
COSMOS 1723 is classified as:


NORAD ID: 16456
Int'l Code: 1986-002H
Perigee: 1,406.0 km
Apogee: 1,489.3 km
Inclination: 74.0 °
Period: 114.7 minutes
Semi major axis: 7818 km
RCS: 0.7097 m2 (medium)
Launch date: January 9, 1986
Source: Commonwealth of Independent States (former USSR) (CIS)
Launch site: PLESETSK MISSILE AND SPACE COMPLEX (PKMTR)
aabbcc
Your satellite tracking list
Your tracking list is empty




NASA's NSSDC Master Catalog

Two Line Element Set (TLE):
1 16456U 86002H   18112.63451824 -.00000012 +00000-0 +30509-4 0  9999
2 16456 073.9858 122.6857 0053228 245.5393 232.4322 12.55754885479857
Source of the keplerian elements: AFSPC